This demonstration page uses our WeatherBlox Daily Observations layout. Learn more.

Left ArrowRight Arrow

Hourly Observations for November 2, 2015

Temp ( °F °C ) Dew Point ( °F °C ) Humidity (%) Winds ( mph kmh ) Pressure ( in mb ) Visibility ( mi km ) Precip ( " mm )
12:53 am 00:53 Clear 41 5 32 0 70 70 WSW 18 30 29.75 1007 10 16 0.00 0.00
1:53 am 01:53 Mostly Clear 41 5 32 0 70 70 SW 20 31 29.76 1008 10 16 0.00 0.00
2:53 am 02:53 Mostly Clear 42 5.6 31 -0.6 65 65 SW 20 31 29.76 1008 10 16 0.00 0.00
3:53 am 03:53 Clear 41 5 29 -1.7 62 62 SW 17 28 29.78 1008 10 16 0.00 0.00
4:53 am 04:53 Mostly Cloudy 37 2.8 28 -2.2 70 70 SW 15 24 29.80 1009 10 16 0.00 0.00
5:53 am 05:53 Mostly Clear 38 3.3 28 -2.2 68 68 WSW 15 24 29.83 1010 10 16 0.00 0.00
6:09 am 06:09 Clear 37 2.8 28 -2.2 70 70 W 12 19 29.85 1011 10 16 0.00 0.00
6:53 am 06:53 Clear 33 0.6 26 -3.3 75 75 WNW 6 9 29.86 1011 10 16 0.00 0.00
7:53 am 07:53 Sunny 35 1.7 27 -2.8 72 72 W 9 15 29.88 1012 10 16 0.00 0.00
8:53 am 08:53 Sunny 39 3.9 27 -2.8 62 62 WSW 10 17 29.88 1012 10 16 0.00 0.00
11:53 am 11:53 Sunny 47 8.3 29 -1.7 50 50 VRB 5 7 29.85 1011 10 16 0.00 0.00
12:53 pm 12:53 Sunny 49 9.4 30 -1.1 48 48 Calm 29.84 1011 10 16 0.00 0.00
1:53 pm 13:53 Sunny 51 10.6 31 -0.6 46 46 ENE 3 6 29.83 1010 10 16 0.00 0.00
2:53 pm 14:53 Sunny 52 11.1 30 -1.1 43 43 E 6 9 29.81 1010 10 16 0.00 0.00
3:53 pm 15:53 Partly Cloudy 50 10 31 -0.6 48 48 E 7 11 29.82 1010 10 16 0.00 0.00
4:53 pm 16:53 Cloudy 47 8.3 32 0 56 56 E 7 11 29.85 1011 10 16 0.00 0.00
5:53 pm 17:53 Cloudy 45 7.2 32 0 61 61 undefined N/A 29.84 1010 10 16 0.00 0.00
6:53 pm 18:53 Clear 43 6.1 30 -1.1 60 60 ENE 9 15 29.84 1011 10 16 0.00 0.00
7:53 pm 19:53 Partly Cloudy 41 5 31 -0.6 67 67 E 9 15 29.85 1011 10 16 0.00 0.00
8:53 pm 20:53 Cloudy 41 5 31 -0.6 67 67 ENE 9 15 29.84 1011 10 16 0.00 0.00
9:53 pm 21:53 Cloudy 40 4.4 32 0 73 73 NE 10 17 29.83 1010 10 16 0.00 0.00
10:53 pm 22:53 Cloudy 39 3.9 33 0.6 79 79 ENE 12 19 29.82 1010 10 16 0.00 0.00
11:53 pm 23:53 Cloudy 39 3.9 33 0.6 79 79 ENE 12 19 29.82 1010 10 16 0.00 0.00

Powered by AerisWeather